Location: Castrojimeno
(41.3966°N, 3.8473°W)
Time: 12:01:50
(UTC+00:00)

Helios 1A Rocket - Pass Details

Date: 15 May 2026
Orbit: 400 x 410 km, 98.3° (Epoch: 6 June)

Event Time Altitude Azimuth Distance (km) Brightness Sun altitude
Rises 20:01:54 0° 21° (NNE) 2,333 6.2 -6.4°
Reaches altitude 10° 20:03:59 10° 30° (NNE) 1,465 5.0 -6.8°
Maximum altitude 20:06:55 37° 100° (E) 647 2.7 -7.2°
Drops below altitude 10° 20:09:49 10° 169° (S) 1,447 4.6 -7.7°
Sets 20:11:58 0° 179° (S) 2,344 5.7 -8.0°
